Regional Weather Roundup
Issued by NWS Kansas City/Pleasant Hill, MO

Home | Current Version | Previous Version | Graphics & Text | Print | Product List | Glossary Off
Versions: 1 2 3 4 5 6 7 8 9 10 11 12 13 14 15 16 17 18 19 20 21 22 23 24 25 26 27 28 29 30 31 32 33 34 35 36 37 38 39 40 41 42 43 44 45 46 47 48 49 50

000
ASUS43 KEAX 302210
RWREAX

WEATHER ROUNDUP FOR EASTERN KANSAS AND NORTHWEST MISSOURI
NATIONAL WEATHER SERVICE KANSAS CITY/PLEASANT HILL MO
500 PM CDT MON MAY 30 2016

KSZ040-057-103>105-MOZ028-029-037-043-302300-
...KANSAS CITY METROPOLITAN AREA...

CITY           SKY/WX    TMP DP  RH WIND       PRES   REMARKS
K.C. INTL      CLOUDY    74  66  76 S15       29.97F
K.C. DOWNTOWN  CLOUDY    77  63  61 S12G23    29.98S
LEES SUMMIT    CLOUDY    72  62  71 S17       30.01R
OLATHE - IXD   CLOUDY    72  65  78 S14G23    30.00F
OLATHE - OJC   CLOUDY    70  62  76 S14G23    30.00F
LAWRENCE       PTSUNNY   78  66  66 S16       29.96F

$$

MOZ001>008-011>017-020>025-030>033-038>040-044>046-053-054-302300-
...NORTHERN AND CENTRAL MISSOURI...

CITY           SKY/WX    TMP DP  RH WIND       PRES   REMARKS
ST. JOSEPH     LGT RAIN  77  61  57 S14G20    29.94F
MOSBY          CLOUDY    77  59  53 S6        29.98F
WHITEMAN AFB   LGT RAIN  65  65 100 SW18      30.01F
CLINTON        LGT RAIN  64  64 100 CALM      30.07F
SEDALIA        LGT RAIN  67  62  84 SW20G28   30.04R
WARSAW         NOT AVBL
CHILLICOTHE      N/A     82  65  56 S9        29.97F
KIRKSVILLE     CLOUDY    82  67  60 S9        29.98F

$$

MOZ041-047>049-056>058-063>065-088>090-097-302300-
...EASTERN AND SOUTHERN MISSOURI...

CITY           SKY/WX    TMP DP  RH WIND       PRES   REMARKS
ST. LOUIS INTL CLOUDY    79  58  48 SW12      30.00S
SPIRIT OF STL  TSTM     N/A N/A N/A SE17      30.01R FOG
COLUMBIA       CLOUDY    81  67  62 S6        30.00F
JEFFERSON CITY CLOUDY    82  64  54 S6        29.98F
ROLLA          CLOUDY    78  67  68 S6        30.00F
SPRINGFIELD    CLOUDY    71  59  65 CALM      30.05R
BRANSON        CLOUDY    70  64  83 CALM      30.03F
JOPLIN         LGT RAIN  70  68  93 CALM      30.02F
WEST PLAINS    TSTM      66  62  87 NE5       30.08F FOG

$$

IAZ060-094-KSZ022-034>040-054-083-096-NEZ052-066-093-302300-
...KANSAS...SOUTHEAST NEBRASKA AND IOWA...

CITY           SKY/WX    TMP DP  RH WIND       PRES   REMARKS
TOPEKA         MOSUNNY   83  64  52 S14       29.93F
MANHATTAN      MOSUNNY   85  61  44 S15       29.90F
EMPORIA        SUNNY     79  62  56 SE17      29.96F
CHANUTE        MOSUNNY   77  61  57 SE14      29.98F
WICHITA        MOSUNNY   82  58  43 SE14G24   29.92F
OMAHA          TSTM      82  57  42 S18G28    29.86F
LINCOLN        SUNNY     87  55  33 SW16      29.86F
FALLS CITY     LGT RAIN  85  65  51 S14G24    29.88F
LAMONI         SUNNY     83  61  47 S15G23    29.92F
DES MOINES     MOSUNNY   87  59  38 S13       29.90F

$$




USA.gov is the U.S. government's official web portal to all federal, state and local government web resources and services.